PWSweather.com
Personal Weather Stations
Station Observations
UGLTEWKE1
3 Beckford Close, BeckfordGB GL20 7

3 Beckford CloseBeckfordGB GL20 7

Lat: 52.01582, Lon: -2.037782

Elevation: 112

Station Type: Davis Vantage Pro2

http://www.theshieling.net/weatherdavis.php

High Low Average
Temperature 44.6°F7.0°C 36.7°F2.6°C 40.5°F4.7°C
Dew Point 40.1°F4.5°C 33.4°F0.8°C 36.9°F2.7°C
Winds 11.0 mph 17.7 kmh Calm Calm 4.0 mph SE6.4 kmh SE
Wind Gusts 25.0 mph40.2 kmh -- 10.0 mph16.1 kmh
Humidity 91% 83% 87%
Pressure 29.44 in997.0 mb 29.21 in989.2 mb -
Precipitation 0.31 in7.9 mm - -
Hour Temp Dew Point Humidity Winds Wind Gusts Pressure Precip Precip Rate Daily Precip Total
12:00 AM 37.9°F3.3°C 34.7°F1.5°C 88% Calm Calm 3.0 mph4.8 kmh 29.36 in994.2 mb 0.00 in0.0 mm 0.00 in0.0 mm 0.00 in0.0 mm
12:05 AM 38.1°F3.4°C 34.9°F1.6°C 88% Calm Calm -- 29.36 in994.2 mb 0.00 in0.0 mm 0.00 in0.0 mm 0.00 in0.0 mm
12:10 AM 38.1°F3.4°C 34.9°F1.6°C 88% Calm Calm 1.0 mph1.6 kmh 29.36 in994.2 mb 0.00 in0.0 mm 0.00 in0.0 mm 0.00 in0.0 mm
12:15 AM 38.1°F3.4°C 34.9°F1.6°C 88% Calm Calm -- 29.36 in994.2 mb 0.00 in0.0 mm 0.00 in0.0 mm 0.00 in0.0 mm
12:20 AM 38.1°F3.4°C 34.9°F1.6°C 88% Calm Calm 2.0 mph3.2 kmh 29.36 in994.2 mb 0.00 in0.0 mm 0.00 in0.0 mm 0.00 in0.0 mm
12:25 AM 38.1°F3.4°C 34.9°F1.6°C 88% Calm Calm 5.0 mph8.0 kmh 29.36 in994.2 mb 0.00 in0.0 mm 0.00 in0.0 mm 0.00 in0.0 mm
12:30 AM 38.1°F3.4°C 34.9°F1.6°C 88% 1.0 mph ENE1.6 kmh ENE 6.0 mph9.7 kmh 29.36 in994.2 mb 0.00 in0.0 mm 0.00 in0.0 mm 0.00 in0.0 mm
12:35 AM 38.1°F3.4°C 34.9°F1.6°C 88% Calm Calm 2.0 mph3.2 kmh 29.36 in994.2 mb 0.00 in0.0 mm 0.00 in0.0 mm 0.00 in0.0 mm
12:40 AM 37.9°F3.3°C 34.7°F1.5°C 88% Calm Calm 4.0 mph6.4 kmh 29.35 in993.9 mb 0.00 in0.0 mm 0.00 in0.0 mm 0.00 in0.0 mm
12:45 AM 38.1°F3.4°C 34.9°F1.6°C 88% Calm Calm 2.0 mph3.2 kmh 29.35 in993.9 mb 0.00 in0.0 mm 0.00 in0.0 mm 0.00 in0.0 mm
12:50 AM 38.1°F3.4°C 34.9°F1.6°C 88% Calm Calm 6.0 mph9.7 kmh 29.35 in993.9 mb 0.00 in0.0 mm 0.00 in0.0 mm 0.00 in0.0 mm
12:55 AM 38.1°F3.4°C 34.9°F1.6°C 88% Calm Calm 8.0 mph12.9 kmh 29.35 in993.9 mb 0.00 in0.0 mm 0.00 in0.0 mm 0.00 in0.0 mm
01:00 AM 38.1°F3.4°C 34.9°F1.6°C 88% 1.0 mph ENE1.6 kmh ENE 7.0 mph11.3 kmh 29.35 in993.9 mb 0.00 in0.0 mm 0.00 in0.0 mm 0.00 in0.0 mm
01:05 AM 38.1°F3.4°C 34.9°F1.6°C 88% Calm Calm 7.0 mph11.3 kmh 29.34 in993.6 mb 0.00 in0.0 mm 0.00 in0.0 mm 0.00 in0.0 mm
01:10 AM 38.1°F3.4°C 34.9°F1.6°C 88% 1.0 mph ENE1.6 kmh ENE 8.0 mph12.9 kmh 29.34 in993.6 mb 0.00 in0.0 mm 0.00 in0.0 mm 0.00 in0.0 mm
01:15 AM 38.1°F3.4°C 34.9°F1.6°C 88% Calm Calm 3.0 mph4.8 kmh 29.34 in993.6 mb 0.00 in0.0 mm 0.00 in0.0 mm 0.00 in0.0 mm
01:20 AM 38.1°F3.4°C 34.9°F1.6°C 88% Calm Calm 8.0 mph12.9 kmh 29.34 in993.6 mb 0.00 in0.0 mm 0.00 in0.0 mm 0.00 in0.0 mm
01:25 AM 37.9°F3.3°C 34.7°F1.5°C 88% Calm Calm 5.0 mph8.0 kmh 29.34 in993.6 mb 0.00 in0.0 mm 0.00 in0.0 mm 0.00 in0.0 mm
01:30 AM 37.9°F3.3°C 34.7°F1.5°C 88% Calm Calm 3.0 mph4.8 kmh 29.34 in993.6 mb 0.00 in0.0 mm 0.00 in0.0 mm 0.00 in0.0 mm
01:35 AM 37.9°F3.3°C 34.7°F1.5°C 88% Calm Calm 6.0 mph9.7 kmh 29.34 in993.6 mb 0.00 in0.0 mm 0.00 in0.0 mm 0.00 in0.0 mm
01:40 AM 37.8°F3.2°C 34.2°F1.2°C 87% 1.0 mph ENE1.6 kmh ENE 8.0 mph12.9 kmh 29.34 in993.6 mb 0.00 in0.0 mm 0.00 in0.0 mm 0.00 in0.0 mm
01:45 AM 37.8°F3.2°C 34.2°F1.2°C 87% 1.0 mph ENE1.6 kmh ENE 6.0 mph9.7 kmh 29.33 in993.2 mb 0.00 in0.0 mm 0.00 in0.0 mm 0.00 in0.0 mm
01:50 AM 37.8°F3.2°C 34.2°F1.2°C 87% 1.0 mph E1.6 kmh E 7.0 mph11.3 kmh 29.33 in993.2 mb 0.00 in0.0 mm 0.00 in0.0 mm 0.00 in0.0 mm
01:55 AM 37.8°F3.2°C 34.2°F1.2°C 87% 1.0 mph ENE1.6 kmh ENE 7.0 mph11.3 kmh 29.33 in993.2 mb 0.00 in0.0 mm 0.00 in0.0 mm 0.00 in0.0 mm
02:00 AM 37.8°F3.2°C 34.2°F1.2°C 87% Calm Calm 8.0 mph12.9 kmh 29.33 in993.2 mb 0.00 in0.0 mm 0.00 in0.0 mm 0.00 in0.0 mm
02:05 AM 37.6°F3.1°C 34.0°F1.1°C 87% Calm Calm 4.0 mph6.4 kmh 29.33 in993.2 mb 0.00 in0.0 mm 0.00 in0.0 mm 0.00 in0.0 mm
02:10 AM 37.8°F3.2°C 34.2°F1.2°C 87% Calm Calm 5.0 mph8.0 kmh 29.33 in993.2 mb 0.00 in0.0 mm 0.00 in0.0 mm 0.00 in0.0 mm
02:15 AM 37.6°F3.1°C 34.0°F1.1°C 87% Calm Calm 3.0 mph4.8 kmh 29.33 in993.2 mb 0.00 in0.0 mm 0.00 in0.0 mm 0.00 in0.0 mm
02:20 AM 37.6°F3.1°C 34.0°F1.1°C 87% 1.0 mph SE1.6 kmh SE 4.0 mph6.4 kmh 29.32 in992.9 mb 0.00 in0.0 mm 0.00 in0.0 mm 0.00 in0.0 mm
02:25 AM 37.6°F3.1°C 34.0°F1.1°C 87% Calm Calm 4.0 mph6.4 kmh 29.32 in992.9 mb 0.00 in0.0 mm 0.00 in0.0 mm 0.00 in0.0 mm
02:30 AM 37.6°F3.1°C 34.0°F1.1°C 87% 1.0 mph ENE1.6 kmh ENE 9.0 mph14.5 kmh 29.32 in992.9 mb 0.00 in0.0 mm 0.00 in0.0 mm 0.00 in0.0 mm
02:35 AM 37.6°F3.1°C 34.0°F1.1°C 87% Calm Calm 5.0 mph8.0 kmh 29.31 in992.6 mb 0.00 in0.0 mm 0.00 in0.0 mm 0.00 in0.0 mm
02:40 AM 37.6°F3.1°C 34.0°F1.1°C 87% Calm Calm 6.0 mph9.7 kmh 29.31 in992.6 mb 0.00 in0.0 mm 0.00 in0.0 mm 0.00 in0.0 mm
02:45 AM 37.4°F3.0°C 33.8°F1.0°C 87% Calm Calm 5.0 mph8.0 kmh 29.31 in992.6 mb 0.00 in0.0 mm 0.00 in0.0 mm 0.00 in0.0 mm
02:50 AM 37.4°F3.0°C 33.8°F1.0°C 87% Calm Calm 4.0 mph6.4 kmh 29.31 in992.6 mb 0.00 in0.0 mm 0.00 in0.0 mm 0.00 in0.0 mm
02:55 AM 37.4°F3.0°C 33.8°F1.0°C 87% Calm Calm 2.0 mph3.2 kmh 29.30 in992.2 mb 0.00 in0.0 mm 0.00 in0.0 mm 0.00 in0.0 mm
03:00 AM 37.2°F2.9°C 33.6°F0.9°C 87% Calm Calm 6.0 mph9.7 kmh 29.30 in992.2 mb 0.00 in0.0 mm 0.00 in0.0 mm 0.00 in0.0 mm
03:05 AM 37.2°F2.9°C 34.0°F1.1°C 88% Calm Calm 2.0 mph3.2 kmh 29.30 in992.2 mb 0.00 in0.0 mm 0.00 in0.0 mm 0.00 in0.0 mm
03:10 AM 37.2°F2.9°C 34.0°F1.1°C 88% Calm Calm 1.0 mph1.6 kmh 29.30 in992.2 mb 0.00 in0.0 mm 0.00 in0.0 mm 0.00 in0.0 mm
03:15 AM 37.2°F2.9°C 34.0°F1.1°C 88% 1.0 mph E1.6 kmh E 7.0 mph11.3 kmh 29.30 in992.2 mb 0.00 in0.0 mm 0.00 in0.0 mm 0.00 in0.0 mm
03:20 AM 37.2°F2.9°C 34.0°F1.1°C 88% 1.0 mph E1.6 kmh E 5.0 mph8.0 kmh 29.30 in992.2 mb 0.00 in0.0 mm 0.00 in0.0 mm 0.00 in0.0 mm
03:25 AM 37.0°F2.8°C 33.8°F1.0°C 88% Calm Calm 5.0 mph8.0 kmh 29.29 in991.9 mb 0.00 in0.0 mm 0.00 in0.0 mm 0.00 in0.0 mm
03:30 AM 37.0°F2.8°C 33.8°F1.0°C 88% 1.0 mph E1.6 kmh E 5.0 mph8.0 kmh 29.29 in991.9 mb 0.00 in0.0 mm 0.00 in0.0 mm 0.00 in0.0 mm
03:35 AM 37.2°F2.9°C 34.0°F1.1°C 88% Calm Calm 6.0 mph9.7 kmh 29.29 in991.9 mb 0.00 in0.0 mm 0.00 in0.0 mm 0.00 in0.0 mm
03:40 AM 37.2°F2.9°C 34.0°F1.1°C 88% Calm Calm 3.0 mph4.8 kmh 29.29 in991.9 mb 0.00 in0.0 mm 0.00 in0.0 mm 0.00 in0.0 mm
03:45 AM 37.2°F2.9°C 34.0°F1.1°C 88% Calm Calm -- 29.29 in991.9 mb 0.00 in0.0 mm 0.00 in0.0 mm 0.00 in0.0 mm
03:50 AM 37.2°F2.9°C 34.0°F1.1°C 88% Calm Calm 3.0 mph4.8 kmh 29.29 in991.9 mb 0.00 in0.0 mm 0.00 in0.0 mm 0.00 in0.0 mm
03:55 AM 37.4°F3.0°C 34.2°F1.2°C 88% Calm Calm 4.0 mph6.4 kmh 29.29 in991.9 mb 0.00 in0.0 mm 0.00 in0.0 mm 0.00 in0.0 mm
04:00 AM 37.4°F3.0°C 34.2°F1.2°C 88% Calm Calm 3.0 mph4.8 kmh 29.28 in991.5 mb 0.00 in0.0 mm 0.00 in0.0 mm 0.00 in0.0 mm
04:05 AM 37.6°F3.1°C 34.0°F1.1°C 87% Calm Calm 2.0 mph3.2 kmh 29.28 in991.5 mb 0.00 in0.0 mm 0.00 in0.0 mm 0.00 in0.0 mm
04:10 AM 37.6°F3.1°C 34.0°F1.1°C 87% Calm Calm 6.0 mph9.7 kmh 29.28 in991.5 mb 0.00 in0.0 mm 0.00 in0.0 mm 0.00 in0.0 mm
04:15 AM 37.6°F3.1°C 34.0°F1.1°C 87% Calm Calm 4.0 mph6.4 kmh 29.28 in991.5 mb 0.00 in0.0 mm 0.00 in0.0 mm 0.00 in0.0 mm
04:20 AM 37.6°F3.1°C 34.0°F1.1°C 87% Calm Calm 2.0 mph3.2 kmh 29.28 in991.5 mb 0.00 in0.0 mm 0.00 in0.0 mm 0.00 in0.0 mm
04:25 AM 37.6°F3.1°C 34.0°F1.1°C 87% 1.0 mph E1.6 kmh E 5.0 mph8.0 kmh 29.28 in991.5 mb 0.00 in0.0 mm 0.00 in0.0 mm 0.00 in0.0 mm
04:30 AM 37.6°F3.1°C 34.0°F1.1°C 87% Calm Calm 5.0 mph8.0 kmh 29.28 in991.5 mb 0.00 in0.0 mm 0.00 in0.0 mm 0.00 in0.0 mm
04:35 AM 37.6°F3.1°C 33.8°F1.0°C 86% 1.0 mph E1.6 kmh E 7.0 mph11.3 kmh 29.28 in991.5 mb 0.00 in0.0 mm 0.00 in0.0 mm 0.00 in0.0 mm
04:40 AM 37.6°F3.1°C 33.8°F1.0°C 86% 1.0 mph E1.6 kmh E 9.0 mph14.5 kmh 29.28 in991.5 mb 0.00 in0.0 mm 0.00 in0.0 mm 0.00 in0.0 mm
04:45 AM 37.6°F3.1°C 33.8°F1.0°C 86% Calm Calm 4.0 mph6.4 kmh 29.28 in991.5 mb 0.00 in0.0 mm 0.00 in0.0 mm 0.00 in0.0 mm
04:50 AM 37.6°F3.1°C 33.8°F1.0°C 86% Calm Calm 1.0 mph1.6 kmh 29.28 in991.5 mb 0.00 in0.0 mm 0.00 in0.0 mm 0.00 in0.0 mm
04:55 AM 37.6°F3.1°C 33.8°F1.0°C 86% Calm Calm -- 29.28 in991.5 mb 0.00 in0.0 mm 0.00 in0.0 mm 0.00 in0.0 mm
05:00 AM 37.6°F3.1°C 33.8°F1.0°C 86% Calm Calm 6.0 mph9.7 kmh 29.28 in991.5 mb 0.00 in0.0 mm 0.00 in0.0 mm 0.00 in0.0 mm
05:05 AM 37.6°F3.1°C 33.8°F1.0°C 86% Calm Calm -- 29.27 in991.2 mb 0.00 in0.0 mm 0.00 in0.0 mm 0.00 in0.0 mm
05:10 AM 37.6°F3.1°C 33.8°F1.0°C 86% Calm Calm 5.0 mph8.0 kmh 29.27 in991.2 mb 0.00 in0.0 mm 0.00 in0.0 mm 0.00 in0.0 mm
05:15 AM 37.6°F3.1°C 33.8°F1.0°C 86% Calm Calm -- 29.27 in991.2 mb 0.00 in0.0 mm 0.00 in0.0 mm 0.00 in0.0 mm
05:20 AM 37.6°F3.1°C 33.8°F1.0°C 86% Calm Calm 5.0 mph8.0 kmh 29.27 in991.2 mb 0.00 in0.0 mm 0.00 in0.0 mm 0.00 in0.0 mm
05:25 AM 37.6°F3.1°C 33.8°F1.0°C 86% Calm Calm -- 29.27 in991.2 mb 0.00 in0.0 mm 0.00 in0.0 mm 0.00 in0.0 mm
05:30 AM 37.6°F3.1°C 33.8°F1.0°C 86% Calm Calm 5.0 mph8.0 kmh 29.27 in991.2 mb 0.00 in0.0 mm 0.00 in0.0 mm 0.00 in0.0 mm
05:35 AM 37.6°F3.1°C 33.4°F0.8°C 85% Calm Calm 3.0 mph4.8 kmh 29.27 in991.2 mb 0.00 in0.0 mm 0.00 in0.0 mm 0.00 in0.0 mm
05:40 AM 37.6°F3.1°C 33.8°F1.0°C 86% 1.0 mph E1.6 kmh E 6.0 mph9.7 kmh 29.27 in991.2 mb 0.00 in0.0 mm 0.00 in0.0 mm 0.00 in0.0 mm
05:45 AM 37.6°F3.1°C 33.8°F1.0°C 86% Calm Calm 5.0 mph8.0 kmh 29.27 in991.2 mb 0.00 in0.0 mm 0.00 in0.0 mm 0.00 in0.0 mm
05:50 AM 37.6°F3.1°C 33.8°F1.0°C 86% Calm Calm 7.0 mph11.3 kmh 29.27 in991.2 mb 0.00 in0.0 mm 0.00 in0.0 mm 0.00 in0.0 mm
05:55 AM 37.8°F3.2°C 34.0°F1.1°C 86% 1.0 mph E1.6 kmh E 7.0 mph11.3 kmh 29.26 in990.9 mb 0.00 in0.0 mm 0.00 in0.0 mm 0.00 in0.0 mm
06:00 AM 37.8°F3.2°C 34.0°F1.1°C 86% 1.0 mph ENE1.6 kmh ENE 9.0 mph14.5 kmh 29.26 in990.9 mb 0.00 in0.0 mm 0.00 in0.0 mm 0.00 in0.0 mm
06:05 AM 37.8°F3.2°C 34.0°F1.1°C 86% 1.0 mph ENE1.6 kmh ENE 7.0 mph11.3 kmh 29.26 in990.9 mb 0.00 in0.0 mm 0.00 in0.0 mm 0.00 in0.0 mm
06:10 AM 37.8°F3.2°C 34.0°F1.1°C 86% 1.0 mph ENE1.6 kmh ENE 9.0 mph14.5 kmh 29.26 in990.9 mb 0.00 in0.0 mm 0.00 in0.0 mm 0.00 in0.0 mm
06:15 AM 37.8°F3.2°C 34.0°F1.1°C 86% 1.0 mph ENE1.6 kmh ENE 6.0 mph9.7 kmh 29.26 in990.9 mb 0.00 in0.0 mm 0.00 in0.0 mm 0.00 in0.0 mm
06:20 AM 37.8°F3.2°C 34.0°F1.1°C 86% 1.0 mph ENE1.6 kmh ENE 8.0 mph12.9 kmh 29.26 in990.9 mb 0.00 in0.0 mm 0.00 in0.0 mm 0.00 in0.0 mm
06:25 AM 37.6°F3.1°C 34.0°F1.1°C 87% Calm Calm 3.0 mph4.8 kmh 29.26 in990.9 mb 0.00 in0.0 mm 0.00 in0.0 mm 0.00 in0.0 mm
06:30 AM 37.6°F3.1°C 34.0°F1.1°C 87% 1.0 mph E1.6 kmh E 6.0 mph9.7 kmh 29.26 in990.9 mb 0.00 in0.0 mm 0.00 in0.0 mm 0.07 in1.8 mm
06:35 AM 37.6°F3.1°C 34.0°F1.1°C 87% 1.0 mph E1.6 kmh E 8.0 mph12.9 kmh 29.26 in990.9 mb 0.01 in0.3 mm 0.09 in2.3 mm 0.07 in1.8 mm
06:40 AM 37.6°F3.1°C 34.0°F1.1°C 87% Calm Calm 4.0 mph6.4 kmh 29.26 in990.9 mb 0.01 in0.3 mm 0.00 in0.0 mm 0.07 in1.8 mm
06:45 AM 37.4°F3.0°C 33.8°F1.0°C 87% 1.0 mph E1.6 kmh E 8.0 mph12.9 kmh 29.26 in990.9 mb 0.01 in0.3 mm 0.00 in0.0 mm 0.07 in1.8 mm
06:50 AM 37.2°F2.9°C 33.6°F0.9°C 87% 2.0 mph ENE3.2 kmh ENE 11.0 mph17.7 kmh 29.26 in990.9 mb 0.01 in0.3 mm 0.00 in0.0 mm 0.07 in1.8 mm
06:55 AM 37.2°F2.9°C 33.6°F0.9°C 87% 1.0 mph E1.6 kmh E 8.0 mph12.9 kmh 29.26 in990.9 mb 0.01 in0.3 mm 0.00 in0.0 mm 0.07 in1.8 mm
07:00 AM 37.0°F2.8°C 33.6°F0.9°C 87% 2.0 mph E3.2 kmh E 10.0 mph16.1 kmh 29.25 in990.5 mb 0.02 in0.5 mm 0.01 in0.3 mm 0.07 in1.8 mm
07:05 AM 37.0°F2.8°C 33.6°F0.9°C 87% 2.0 mph ENE3.2 kmh ENE 13.0 mph20.9 kmh 29.25 in990.5 mb 0.02 in0.5 mm 0.00 in0.0 mm 0.07 in1.8 mm
07:10 AM 36.9°F2.7°C 33.4°F0.8°C 87% 1.0 mph E1.6 kmh E 8.0 mph12.9 kmh 29.25 in990.5 mb 0.02 in0.5 mm 0.00 in0.0 mm 0.07 in1.8 mm
07:15 AM 36.7°F2.6°C 33.4°F0.8°C 88% 2.0 mph ENE3.2 kmh ENE 10.0 mph16.1 kmh 29.25 in990.5 mb 0.02 in0.5 mm 0.09 in2.3 mm 0.07 in1.8 mm
07:20 AM 36.9°F2.7°C 33.6°F0.9°C 88% 1.0 mph E1.6 kmh E 9.0 mph14.5 kmh 29.25 in990.5 mb 0.02 in0.5 mm 0.00 in0.0 mm 0.07 in1.8 mm
07:25 AM 36.7°F2.6°C 33.4°F0.8°C 88% 2.0 mph ENE3.2 kmh ENE 10.0 mph16.1 kmh 29.25 in990.5 mb 0.02 in0.5 mm 0.00 in0.0 mm 0.07 in1.8 mm
07:30 AM 36.7°F2.6°C 33.4°F0.8°C 88% 2.0 mph ENE3.2 kmh ENE 11.0 mph17.7 kmh 29.24 in990.2 mb 0.03 in0.8 mm 0.09 in2.3 mm 0.07 in1.8 mm
07:35 AM 36.7°F2.6°C 33.4°F0.8°C 88% 2.0 mph E3.2 kmh E 9.0 mph14.5 kmh 29.24 in990.2 mb 0.03 in0.8 mm 0.00 in0.0 mm 0.07 in1.8 mm
07:40 AM 36.7°F2.6°C 33.4°F0.8°C 88% 1.0 mph ENE1.6 kmh ENE 7.0 mph11.3 kmh 29.24 in990.2 mb 0.03 in0.8 mm 0.00 in0.0 mm 0.07 in1.8 mm
07:45 AM 36.9°F2.7°C 33.6°F0.9°C 88% 3.0 mph E4.8 kmh E 11.0 mph17.7 kmh 29.24 in990.2 mb 0.04 in1.0 mm 0.09 in2.3 mm 0.07 in1.8 mm
07:50 AM 36.9°F2.7°C 34.0°F1.1°C 89% 1.0 mph E1.6 kmh E 10.0 mph16.1 kmh 29.24 in990.2 mb 0.05 in1.3 mm 0.09 in2.3 mm 0.07 in1.8 mm
07:55 AM 36.9°F2.7°C 33.6°F0.9°C 88% 3.0 mph ENE4.8 kmh ENE 12.0 mph19.3 kmh 29.24 in990.2 mb 0.05 in1.3 mm 0.00 in0.0 mm 0.07 in1.8 mm
08:00 AM 36.9°F2.7°C 34.0°F1.1°C 89% 1.0 mph E1.6 kmh E 10.0 mph16.1 kmh 29.23 in989.8 mb 0.04 in1.0 mm 0.00 in0.0 mm 0.07 in1.8 mm
08:05 AM 36.9°F2.7°C 34.0°F1.1°C 89% 3.0 mph E4.8 kmh E 15.0 mph24.1 kmh 29.23 in989.8 mb 0.05 in1.3 mm 0.09 in2.3 mm 0.07 in1.8 mm
08:10 AM 37.0°F2.8°C 34.2°F1.2°C 89% 1.0 mph ENE1.6 kmh ENE 8.0 mph12.9 kmh 29.23 in989.8 mb 0.05 in1.3 mm 0.00 in0.0 mm 0.07 in1.8 mm
08:15 AM 37.2°F2.9°C 34.3°F1.3°C 89% 2.0 mph E3.2 kmh E 10.0 mph16.1 kmh 29.23 in989.8 mb 0.05 in1.3 mm 0.00 in0.0 mm 0.07 in1.8 mm
08:20 AM 37.4°F3.0°C 34.5°F1.4°C 89% 3.0 mph E4.8 kmh E 13.0 mph20.9 kmh 29.23 in989.8 mb 0.05 in1.3 mm 0.00 in0.0 mm 0.07 in1.8 mm
08:25 AM 37.6°F3.1°C 34.7°F1.5°C 89% 2.0 mph ENE3.2 kmh ENE 9.0 mph14.5 kmh 29.23 in989.8 mb 0.05 in1.3 mm 0.00 in0.0 mm 0.07 in1.8 mm
08:30 AM 37.9°F3.3°C 35.1°F1.7°C 89% 2.0 mph ENE3.2 kmh ENE 13.0 mph20.9 kmh 29.23 in989.8 mb 0.04 in1.0 mm 0.00 in0.0 mm 0.07 in1.8 mm
08:35 AM 38.1°F3.4°C 35.2°F1.8°C 89% 1.0 mph E1.6 kmh E 10.0 mph16.1 kmh 29.23 in989.8 mb 0.03 in0.8 mm 0.00 in0.0 mm 0.07 in1.8 mm
08:40 AM 38.5°F3.6°C 35.6°F2.0°C 89% 1.0 mph E1.6 kmh E 6.0 mph9.7 kmh 29.23 in989.8 mb 0.03 in0.8 mm 0.00 in0.0 mm 0.07 in1.8 mm
08:45 AM 38.5°F3.6°C 35.6°F2.0°C 89% 1.0 mph ENE1.6 kmh ENE 9.0 mph14.5 kmh 29.23 in989.8 mb 0.02 in0.5 mm 0.00 in0.0 mm 0.07 in1.8 mm
08:50 AM 38.7°F3.7°C 35.8°F2.1°C 89% 2.0 mph ENE3.2 kmh ENE 10.0 mph16.1 kmh 29.23 in989.8 mb 0.02 in0.5 mm 0.00 in0.0 mm 0.08 in2.0 mm
08:55 AM 38.8°F3.8°C 36.0°F2.2°C 89% 1.0 mph E1.6 kmh E 10.0 mph16.1 kmh 29.23 in989.8 mb 0.02 in0.5 mm 0.00 in0.0 mm 0.08 in2.0 mm
09:00 AM 38.8°F3.8°C 36.0°F2.2°C 89% 2.0 mph ENE3.2 kmh ENE 10.0 mph16.1 kmh 29.23 in989.8 mb 0.02 in0.5 mm 0.00 in0.0 mm 0.08 in2.0 mm
09:05 AM 39.0°F3.9°C 36.1°F2.3°C 89% 2.0 mph ENE3.2 kmh ENE 11.0 mph17.7 kmh 29.23 in989.8 mb 0.02 in0.5 mm 0.00 in0.0 mm 0.08 in2.0 mm
09:10 AM 39.0°F3.9°C 36.1°F2.3°C 89% 2.0 mph SE3.2 kmh SE 10.0 mph16.1 kmh 29.23 in989.8 mb 0.02 in0.5 mm 0.09 in2.3 mm 0.09 in2.3 mm
09:15 AM 39.4°F4.1°C 36.3°F2.4°C 89% 1.0 mph SE1.6 kmh SE 10.0 mph16.1 kmh 29.23 in989.8 mb 0.02 in0.5 mm 0.00 in0.0 mm 0.09 in2.3 mm
09:20 AM 39.2°F4.0°C 36.0°F2.2°C 88% 2.0 mph SE3.2 kmh SE 11.0 mph17.7 kmh 29.23 in989.8 mb 0.02 in0.5 mm 0.00 in0.0 mm 0.09 in2.3 mm
09:25 AM 39.2°F4.0°C 36.0°F2.2°C 88% 1.0 mph SE1.6 kmh SE 12.0 mph19.3 kmh 29.23 in989.8 mb 0.02 in0.5 mm 0.00 in0.0 mm 0.09 in2.3 mm
09:30 AM 39.2°F4.0°C 36.3°F2.4°C 89% 1.0 mph SE1.6 kmh SE 10.0 mph16.1 kmh 29.23 in989.8 mb 0.02 in0.5 mm 0.09 in2.3 mm 0.09 in2.3 mm
09:35 AM 39.4°F4.1°C 36.3°F2.4°C 89% Calm Calm 5.0 mph8.0 kmh 29.23 in989.8 mb 0.03 in0.8 mm 0.09 in2.3 mm 0.10 in2.5 mm
09:40 AM 39.6°F4.2°C 36.5°F2.5°C 89% 1.0 mph ESE1.6 kmh ESE 7.0 mph11.3 kmh 29.22 in989.5 mb 0.03 in0.8 mm 0.00 in0.0 mm 0.10 in2.5 mm
09:45 AM 39.7°F4.3°C 36.7°F2.6°C 89% 2.0 mph SE3.2 kmh SE 13.0 mph20.9 kmh 29.22 in989.5 mb 0.03 in0.8 mm 0.00 in0.0 mm 0.10 in2.5 mm
09:50 AM 39.9°F4.4°C 36.9°F2.7°C 89% 3.0 mph SE4.8 kmh SE 11.0 mph17.7 kmh 29.23 in989.8 mb 0.02 in0.5 mm 0.00 in0.0 mm 0.10 in2.5 mm
09:55 AM 39.9°F4.4°C 36.7°F2.6°C 88% 6.0 mph SE9.7 kmh SE 15.0 mph24.1 kmh 29.23 in989.8 mb 0.03 in0.8 mm 0.09 in2.3 mm 0.11 in2.8 mm
10:00 AM 39.7°F4.3°C 36.5°F2.5°C 88% 3.0 mph SE4.8 kmh SE 13.0 mph20.9 kmh 29.23 in989.8 mb 0.03 in0.8 mm 0.00 in0.0 mm 0.11 in2.8 mm
10:05 AM 39.7°F4.3°C 36.1°F2.3°C 87% 4.0 mph SE6.4 kmh SE 11.0 mph17.7 kmh 29.23 in989.8 mb 0.03 in0.8 mm 0.00 in0.0 mm 0.11 in2.8 mm
10:10 AM 39.6°F4.2°C 36.3°F2.4°C 88% 5.0 mph SE8.0 kmh SE 18.0 mph29.0 kmh 29.23 in989.8 mb 0.03 in0.8 mm 0.00 in0.0 mm 0.12 in3.0 mm
10:15 AM 39.6°F4.2°C 36.3°F2.4°C 88% 4.0 mph SE6.4 kmh SE 18.0 mph29.0 kmh 29.23 in989.8 mb 0.04 in1.0 mm 0.09 in2.3 mm 0.13 in3.3 mm
10:20 AM 39.6°F4.2°C 36.3°F2.4°C 88% 1.0 mph SE1.6 kmh SE 6.0 mph9.7 kmh 29.23 in989.8 mb 0.05 in1.3 mm 0.09 in2.3 mm 0.13 in3.3 mm
10:25 AM 39.6°F4.2°C 36.3°F2.4°C 88% 2.0 mph E3.2 kmh E 12.0 mph19.3 kmh 29.22 in989.5 mb 0.05 in1.3 mm 0.00 in0.0 mm 0.13 in3.3 mm
10:30 AM 39.6°F4.2°C 36.3°F2.4°C 88% 2.0 mph ESE3.2 kmh ESE 11.0 mph17.7 kmh 29.22 in989.5 mb 0.05 in1.3 mm 0.00 in0.0 mm 0.14 in3.6 mm
10:35 AM 39.6°F4.2°C 36.5°F2.5°C 89% 1.0 mph ESE1.6 kmh ESE 9.0 mph14.5 kmh 29.22 in989.5 mb 0.05 in1.3 mm 0.00 in0.0 mm 0.15 in3.8 mm
10:40 AM 39.7°F4.3°C 36.7°F2.6°C 89% 1.0 mph SE1.6 kmh SE 7.0 mph11.3 kmh 29.22 in989.5 mb 0.05 in1.3 mm 0.00 in0.0 mm 0.15 in3.8 mm
10:45 AM 39.9°F4.4°C 36.9°F2.7°C 89% 2.0 mph SE3.2 kmh SE 14.0 mph22.5 kmh 29.22 in989.5 mb 0.06 in1.5 mm 0.09 in2.3 mm 0.16 in4.1 mm
10:50 AM 40.3°F4.6°C 37.6°F3.1°C 90% 2.0 mph SE3.2 kmh SE 10.0 mph16.1 kmh 29.21 in989.2 mb 0.06 in1.5 mm 0.00 in0.0 mm 0.16 in4.1 mm
10:55 AM 40.6°F4.8°C 37.9°F3.3°C 90% 1.0 mph SE1.6 kmh SE 9.0 mph14.5 kmh 29.21 in989.2 mb 0.06 in1.5 mm 0.00 in0.0 mm 0.17 in4.3 mm
11:00 AM 41.2°F5.1°C 38.5°F3.6°C 90% 2.0 mph SE3.2 kmh SE 8.0 mph12.9 kmh 29.21 in989.2 mb 0.06 in1.5 mm 0.00 in0.0 mm 0.17 in4.3 mm
11:05 AM 42.1°F5.6°C 39.6°F4.2°C 91% 3.0 mph SE4.8 kmh SE 11.0 mph17.7 kmh 29.22 in989.5 mb 0.06 in1.5 mm 0.00 in0.0 mm 0.17 in4.3 mm
11:10 AM 42.3°F5.7°C 39.2°F4.0°C 89% 5.0 mph SE8.0 kmh SE 13.0 mph20.9 kmh 29.22 in989.5 mb 0.06 in1.5 mm 0.00 in0.0 mm 0.17 in4.3 mm
11:15 AM 42.4°F5.8°C 39.2°F4.0°C 88% 7.0 mph SE11.3 kmh SE 14.0 mph22.5 kmh 29.22 in989.5 mb 0.05 in1.3 mm 0.00 in0.0 mm 0.17 in4.3 mm
11:20 AM 42.6°F5.9°C 39.4°F4.1°C 88% 7.0 mph SE11.3 kmh SE 12.0 mph19.3 kmh 29.22 in989.5 mb 0.04 in1.0 mm 0.00 in0.0 mm 0.17 in4.3 mm
11:25 AM 42.6°F5.9°C 39.4°F4.1°C 88% 9.0 mph SE14.5 kmh SE 20.0 mph32.2 kmh 29.22 in989.5 mb 0.05 in1.3 mm 0.09 in2.3 mm 0.18 in4.6 mm
11:30 AM 42.6°F5.9°C 39.4°F4.1°C 88% 10.0 mph SE16.1 kmh SE 17.0 mph27.4 kmh 29.22 in989.5 mb 0.04 in1.0 mm 0.00 in0.0 mm 0.18 in4.6 mm
11:35 AM 43.0°F6.1°C 39.4°F4.1°C 87% 10.0 mph SE16.1 kmh SE 17.0 mph27.4 kmh 29.22 in989.5 mb 0.03 in0.8 mm 0.00 in0.0 mm 0.18 in4.6 mm
11:40 AM 43.0°F6.1°C 39.0°F3.9°C 86% 11.0 mph SSE17.7 kmh SSE 20.0 mph32.2 kmh 29.23 in989.8 mb 0.03 in0.8 mm 0.00 in0.0 mm 0.18 in4.6 mm
11:45 AM 42.6°F5.9°C 38.7°F3.7°C 86% 10.0 mph SSE16.1 kmh SSE 17.0 mph27.4 kmh 29.23 in989.8 mb 0.02 in0.5 mm 0.00 in0.0 mm 0.18 in4.6 mm
11:50 AM 42.6°F5.9°C 38.7°F3.7°C 86% 9.0 mph SE14.5 kmh SE 14.0 mph22.5 kmh 29.23 in989.8 mb 0.03 in0.8 mm 0.09 in2.3 mm 0.19 in4.8 mm
11:55 AM 42.8°F6.0°C 38.8°F3.8°C 86% 8.0 mph SE12.9 kmh SE 17.0 mph27.4 kmh 29.23 in989.8 mb 0.02 in0.5 mm 0.00 in0.0 mm 0.19 in4.8 mm
12:00 PM 43.2°F6.2°C 39.6°F4.2°C 87% 9.0 mph SE14.5 kmh SE 16.0 mph25.7 kmh 29.23 in989.8 mb 0.02 in0.5 mm 0.00 in0.0 mm 0.19 in4.8 mm
12:05 PM 43.3°F6.3°C 39.2°F4.0°C 85% 11.0 mph SE17.7 kmh SE 18.0 mph29.0 kmh 29.23 in989.8 mb 0.02 in0.5 mm 0.00 in0.0 mm 0.19 in4.8 mm
12:10 PM 43.5°F6.4°C 39.4°F4.1°C 85% 10.0 mph SE16.1 kmh SE 19.0 mph30.6 kmh 29.23 in989.8 mb 0.02 in0.5 mm 0.00 in0.0 mm 0.19 in4.8 mm
12:15 PM 43.7°F6.5°C 39.7°F4.3°C 86% 8.0 mph SE12.9 kmh SE 16.0 mph25.7 kmh 29.23 in989.8 mb 0.02 in0.5 mm 0.00 in0.0 mm 0.19 in4.8 mm
12:20 PM 43.9°F6.6°C 39.7°F4.3°C 85% 8.0 mph SE12.9 kmh SE 16.0 mph25.7 kmh 29.23 in989.8 mb 0.02 in0.5 mm 0.00 in0.0 mm 0.19 in4.8 mm
12:25 PM 44.1°F6.7°C 39.9°F4.4°C 85% 8.0 mph SE12.9 kmh SE 14.0 mph22.5 kmh 29.23 in989.8 mb 0.01 in0.3 mm 0.00 in0.0 mm 0.19 in4.8 mm
12:30 PM 44.2°F6.8°C 40.1°F4.5°C 85% 7.0 mph SE11.3 kmh SE 15.0 mph24.1 kmh 29.23 in989.8 mb 0.01 in0.3 mm 0.00 in0.0 mm 0.19 in4.8 mm
12:35 PM 44.2°F6.8°C 39.7°F4.3°C 84% 9.0 mph SSE14.5 kmh SSE 18.0 mph29.0 kmh 29.23 in989.8 mb 0.01 in0.3 mm 0.00 in0.0 mm 0.19 in4.8 mm
12:40 PM 44.1°F6.7°C 39.6°F4.2°C 84% 8.0 mph SE12.9 kmh SE 17.0 mph27.4 kmh 29.23 in989.8 mb 0.01 in0.3 mm 0.00 in0.0 mm 0.19 in4.8 mm
12:45 PM 43.7°F6.5°C 39.6°F4.2°C 85% 9.0 mph SE14.5 kmh SE 23.0 mph37.0 kmh 29.23 in989.8 mb 0.01 in0.3 mm 0.00 in0.0 mm 0.19 in4.8 mm
12:50 PM 43.5°F6.4°C 39.6°F4.2°C 86% 8.0 mph SE12.9 kmh SE 22.0 mph35.4 kmh 29.23 in989.8 mb 0.00 in0.0 mm 0.00 in0.0 mm 0.19 in4.8 mm
12:55 PM 43.5°F6.4°C 39.9°F4.4°C 87% 4.0 mph SE6.4 kmh SE 12.0 mph19.3 kmh 29.24 in990.2 mb 0.00 in0.0 mm 0.00 in0.0 mm 0.19 in4.8 mm
01:00 PM 43.5°F6.4°C 39.6°F4.2°C 86% 6.0 mph SE9.7 kmh SE 11.0 mph17.7 kmh 29.24 in990.2 mb 0.00 in0.0 mm 0.00 in0.0 mm 0.19 in4.8 mm
01:05 PM 43.3°F6.3°C 39.4°F4.1°C 86% 7.0 mph SE11.3 kmh SE 15.0 mph24.1 kmh 29.24 in990.2 mb 0.01 in0.3 mm 0.09 in2.3 mm 0.20 in5.1 mm
01:10 PM 43.3°F6.3°C 39.2°F4.0°C 85% 7.0 mph SE11.3 kmh SE 13.0 mph20.9 kmh 29.24 in990.2 mb 0.01 in0.3 mm 0.00 in0.0 mm 0.20 in5.1 mm
01:15 PM 43.2°F6.2°C 39.2°F4.0°C 86% 4.0 mph SE6.4 kmh SE 12.0 mph19.3 kmh 29.24 in990.2 mb 0.01 in0.3 mm 0.00 in0.0 mm 0.20 in5.1 mm
01:20 PM 43.0°F6.1°C 39.0°F3.9°C 86% 5.0 mph SE8.0 kmh SE 11.0 mph17.7 kmh 29.24 in990.2 mb 0.01 in0.3 mm 0.00 in0.0 mm 0.20 in5.1 mm
01:25 PM 42.6°F5.9°C 38.7°F3.7°C 86% 9.0 mph SE14.5 kmh SE 16.0 mph25.7 kmh 29.24 in990.2 mb 0.02 in0.5 mm 0.09 in2.3 mm 0.20 in5.1 mm
01:30 PM 42.6°F5.9°C 38.7°F3.7°C 86% 6.0 mph SE9.7 kmh SE 13.0 mph20.9 kmh 29.23 in989.8 mb 0.02 in0.5 mm 0.00 in0.0 mm 0.20 in5.1 mm
01:35 PM 43.0°F6.1°C 39.0°F3.9°C 86% 6.0 mph SE9.7 kmh SE 14.0 mph22.5 kmh 29.24 in990.2 mb 0.02 in0.5 mm 0.00 in0.0 mm 0.20 in5.1 mm
01:40 PM 43.0°F6.1°C 39.0°F3.9°C 86% 5.0 mph SE8.0 kmh SE 11.0 mph17.7 kmh 29.23 in989.8 mb 0.02 in0.5 mm 0.00 in0.0 mm 0.20 in5.1 mm
01:45 PM 43.2°F6.2°C 39.2°F4.0°C 86% 6.0 mph SE9.7 kmh SE 15.0 mph24.1 kmh 29.23 in989.8 mb 0.02 in0.5 mm 0.00 in0.0 mm 0.31 in7.9 mm
01:50 PM 43.3°F6.3°C 39.4°F4.1°C 86% 5.0 mph SE8.0 kmh SE 12.0 mph19.3 kmh 29.23 in989.8 mb 0.02 in0.5 mm 0.00 in0.0 mm 0.31 in7.9 mm
01:55 PM 43.5°F6.4°C 39.4°F4.1°C 85% 7.0 mph SE11.3 kmh SE 18.0 mph29.0 kmh 29.23 in989.8 mb 0.02 in0.5 mm 0.00 in0.0 mm 0.31 in7.9 mm
02:00 PM 43.7°F6.5°C 39.6°F4.2°C 85% 9.0 mph SE14.5 kmh SE 19.0 mph30.6 kmh 29.23 in989.8 mb 0.02 in0.5 mm 0.00 in0.0 mm 0.31 in7.9 mm
02:05 PM 43.3°F6.3°C 38.5°F3.6°C 83% 8.0 mph SW12.9 kmh SW 24.0 mph38.6 kmh 29.25 in990.5 mb 0.01 in0.3 mm 0.00 in0.0 mm 0.31 in7.9 mm
02:10 PM 42.1°F5.6°C 37.6°F3.1°C 84% 1.0 mph SW1.6 kmh SW 7.0 mph11.3 kmh 29.25 in990.5 mb 0.01 in0.3 mm 0.00 in0.0 mm 0.31 in7.9 mm
02:15 PM 41.7°F5.4°C 37.6°F3.1°C 85% 1.0 mph SW1.6 kmh SW 8.0 mph12.9 kmh 29.25 in990.5 mb 0.01 in0.3 mm 0.00 in0.0 mm 0.31 in7.9 mm
02:20 PM 43.3°F6.3°C 40.1°F4.5°C 88% 7.0 mph SSE11.3 kmh SSE 14.0 mph22.5 kmh 29.24 in990.2 mb 0.01 in0.3 mm 0.00 in0.0 mm 0.31 in7.9 mm
02:25 PM 44.2°F6.8°C 39.7°F4.3°C 84% 8.0 mph SE12.9 kmh SE 16.0 mph25.7 kmh 29.25 in990.5 mb 0.00 in0.0 mm 0.00 in0.0 mm 0.31 in7.9 mm
02:30 PM 44.6°F7.0°C 40.1°F4.5°C 84% 7.0 mph SE11.3 kmh SE 18.0 mph29.0 kmh 29.25 in990.5 mb 0.00 in0.0 mm 0.00 in0.0 mm 0.31 in7.9 mm
02:35 PM 44.6°F7.0°C 39.7°F4.3°C 83% 8.0 mph SE12.9 kmh SE 16.0 mph25.7 kmh 29.25 in990.5 mb 0.00 in0.0 mm 0.00 in0.0 mm 0.31 in7.9 mm
02:40 PM 44.6°F7.0°C 39.7°F4.3°C 83% 9.0 mph SSE14.5 kmh SSE 25.0 mph40.2 kmh 29.26 in990.9 mb 0.00 in0.0 mm 0.00 in0.0 mm 0.31 in7.9 mm
02:45 PM 44.4°F6.9°C 39.6°F4.2°C 83% 9.0 mph SSE14.5 kmh SSE 15.0 mph24.1 kmh 29.26 in990.9 mb 0.01 in0.3 mm 0.09 in2.3 mm 0.31 in7.9 mm
02:50 PM 44.2°F6.8°C 39.7°F4.3°C 84% 11.0 mph SSE17.7 kmh SSE 18.0 mph29.0 kmh 29.26 in990.9 mb 0.01 in0.3 mm 0.00 in0.0 mm 0.31 in7.9 mm
02:55 PM 44.1°F6.7°C 39.6°F4.2°C 84% 9.0 mph SE14.5 kmh SE 17.0 mph27.4 kmh 29.26 in990.9 mb 0.01 in0.3 mm 0.00 in0.0 mm 0.31 in7.9 mm
03:00 PM 44.1°F6.7°C 39.9°F4.4°C 85% 7.0 mph SE11.3 kmh SE 14.0 mph22.5 kmh 29.26 in990.9 mb 0.01 in0.3 mm 0.00 in0.0 mm 0.31 in7.9 mm
03:05 PM 44.1°F6.7°C 39.9°F4.4°C 85% 7.0 mph SE11.3 kmh SE 13.0 mph20.9 kmh 29.26 in990.9 mb 0.01 in0.3 mm 0.00 in0.0 mm 0.31 in7.9 mm
03:10 PM 43.9°F6.6°C 39.9°F4.4°C 86% 7.0 mph SE11.3 kmh SE 16.0 mph25.7 kmh 29.26 in990.9 mb 0.02 in0.5 mm 0.09 in2.3 mm 0.31 in7.9 mm
03:15 PM 43.5°F6.4°C 39.6°F4.2°C 86% 6.0 mph SE9.7 kmh SE 14.0 mph22.5 kmh 29.26 in990.9 mb 0.02 in0.5 mm 0.00 in0.0 mm 0.31 in7.9 mm
03:20 PM 43.5°F6.4°C 39.6°F4.2°C 86% 6.0 mph SE9.7 kmh SE 15.0 mph24.1 kmh 29.26 in990.9 mb 0.02 in0.5 mm 0.00 in0.0 mm 0.31 in7.9 mm
03:25 PM 43.5°F6.4°C 39.9°F4.4°C 87% 7.0 mph SE11.3 kmh SE 13.0 mph20.9 kmh 29.26 in990.9 mb 0.02 in0.5 mm 0.09 in2.3 mm 0.31 in7.9 mm
03:30 PM 43.5°F6.4°C 39.6°F4.2°C 86% 7.0 mph SE11.3 kmh SE 13.0 mph20.9 kmh 29.26 in990.9 mb 0.02 in0.5 mm 0.00 in0.0 mm 0.31 in7.9 mm
03:35 PM 43.5°F6.4°C 39.6°F4.2°C 86% 7.0 mph SE11.3 kmh SE 15.0 mph24.1 kmh 29.26 in990.9 mb 0.02 in0.5 mm 0.00 in0.0 mm 0.31 in7.9 mm
03:40 PM 43.7°F6.5°C 39.6°F4.2°C 85% 9.0 mph SSE14.5 kmh SSE 20.0 mph32.2 kmh 29.26 in990.9 mb 0.02 in0.5 mm 0.00 in0.0 mm 0.31 in7.9 mm
03:45 PM 43.7°F6.5°C 39.6°F4.2°C 85% 6.0 mph SE9.7 kmh SE 13.0 mph20.9 kmh 29.26 in990.9 mb 0.02 in0.5 mm 0.00 in0.0 mm 0.31 in7.9 mm
03:50 PM 43.5°F6.4°C 39.0°F3.9°C 84% 9.0 mph SSE14.5 kmh SSE 19.0 mph30.6 kmh 29.27 in991.2 mb 0.02 in0.5 mm 0.00 in0.0 mm 0.31 in7.9 mm
03:55 PM 43.3°F6.3°C 38.8°F3.8°C 84% 10.0 mph SE16.1 kmh SE 16.0 mph25.7 kmh 29.27 in991.2 mb 0.02 in0.5 mm 0.09 in2.3 mm 0.31 in7.9 mm
04:00 PM 43.2°F6.2°C 39.0°F3.9°C 85% 8.0 mph SSE12.9 kmh SSE 22.0 mph35.4 kmh 29.27 in991.2 mb 0.02 in0.5 mm 0.00 in0.0 mm 0.31 in7.9 mm
04:05 PM 43.2°F6.2°C 39.0°F3.9°C 85% 8.0 mph SSE12.9 kmh SSE 19.0 mph30.6 kmh 29.27 in991.2 mb 0.02 in0.5 mm 0.00 in0.0 mm 0.31 in7.9 mm
04:10 PM 43.2°F6.2°C 39.0°F3.9°C 85% 9.0 mph SSE14.5 kmh SSE 19.0 mph30.6 kmh 29.27 in991.2 mb 0.02 in0.5 mm 0.00 in0.0 mm 0.31 in7.9 mm
04:15 PM 43.3°F6.3°C 39.2°F4.0°C 85% 9.0 mph SE14.5 kmh SE 17.0 mph27.4 kmh 29.27 in991.2 mb 0.02 in0.5 mm 0.00 in0.0 mm 0.31 in7.9 mm
04:20 PM 43.3°F6.3°C 39.2°F4.0°C 85% 10.0 mph SSE16.1 kmh SSE 18.0 mph29.0 kmh 29.27 in991.2 mb 0.02 in0.5 mm 0.00 in0.0 mm 0.31 in7.9 mm
04:25 PM 43.3°F6.3°C 39.2°F4.0°C 85% 10.0 mph SSE16.1 kmh SSE 18.0 mph29.0 kmh 29.27 in991.2 mb 0.01 in0.3 mm 0.00 in0.0 mm 0.31 in7.9 mm
04:30 PM 43.2°F6.2°C 39.0°F3.9°C 85% 9.0 mph SSE14.5 kmh SSE 15.0 mph24.1 kmh 29.27 in991.2 mb 0.01 in0.3 mm 0.00 in0.0 mm 0.31 in7.9 mm
04:35 PM 43.2°F6.2°C 39.2°F4.0°C 86% 8.0 mph SSE12.9 kmh SSE 15.0 mph24.1 kmh 29.28 in991.5 mb 0.02 in0.5 mm 0.09 in2.3 mm 0.31 in7.9 mm
04:40 PM 43.2°F6.2°C 39.2°F4.0°C 86% 8.0 mph SSE12.9 kmh SSE 15.0 mph24.1 kmh 29.28 in991.5 mb 0.02 in0.5 mm 0.00 in0.0 mm 0.31 in7.9 mm
04:45 PM 43.2°F6.2°C 39.0°F3.9°C 85% 8.0 mph SSE12.9 kmh SSE 19.0 mph30.6 kmh 29.28 in991.5 mb 0.02 in0.5 mm 0.00 in0.0 mm 0.31 in7.9 mm
04:50 PM 43.2°F6.2°C 39.0°F3.9°C 85% 11.0 mph SSE17.7 kmh SSE 18.0 mph29.0 kmh 29.28 in991.5 mb 0.02 in0.5 mm 0.00 in0.0 mm 0.31 in7.9 mm
04:55 PM 43.2°F6.2°C 39.0°F3.9°C 85% 10.0 mph SSE16.1 kmh SSE 14.0 mph22.5 kmh 29.29 in991.9 mb 0.01 in0.3 mm 0.00 in0.0 mm 0.31 in7.9 mm
05:00 PM 43.3°F6.3°C 39.2°F4.0°C 85% 8.0 mph SSE12.9 kmh SSE 16.0 mph25.7 kmh 29.29 in991.9 mb 0.01 in0.3 mm 0.00 in0.0 mm 0.31 in7.9 mm
05:05 PM 43.3°F6.3°C 39.2°F4.0°C 85% 8.0 mph SSE12.9 kmh SSE 17.0 mph27.4 kmh 29.29 in991.9 mb 0.01 in0.3 mm 0.00 in0.0 mm 0.31 in7.9 mm
05:10 PM 43.3°F6.3°C 39.2°F4.0°C 85% 7.0 mph SSE11.3 kmh SSE 16.0 mph25.7 kmh 29.29 in991.9 mb 0.01 in0.3 mm 0.00 in0.0 mm 0.31 in7.9 mm
05:15 PM 43.3°F6.3°C 39.4°F4.1°C 86% 8.0 mph SSE12.9 kmh SSE 14.0 mph22.5 kmh 29.30 in992.2 mb 0.01 in0.3 mm 0.00 in0.0 mm 0.31 in7.9 mm
05:20 PM 43.2°F6.2°C 39.2°F4.0°C 86% 9.0 mph SSE14.5 kmh SSE 17.0 mph27.4 kmh 29.30 in992.2 mb 0.01 in0.3 mm 0.00 in0.0 mm 0.31 in7.9 mm
05:25 PM 43.2°F6.2°C 39.2°F4.0°C 86% 7.0 mph SE11.3 kmh SE 13.0 mph20.9 kmh 29.31 in992.6 mb 0.01 in0.3 mm 0.00 in0.0 mm 0.31 in7.9 mm
05:30 PM 43.2°F6.2°C 39.6°F4.2°C 87% 5.0 mph SSE8.0 kmh SSE 13.0 mph20.9 kmh 29.31 in992.6 mb 0.01 in0.3 mm 0.00 in0.0 mm 0.31 in7.9 mm
05:35 PM 43.2°F6.2°C 39.6°F4.2°C 87% 5.0 mph SE8.0 kmh SE 12.0 mph19.3 kmh 29.31 in992.6 mb 0.00 in0.0 mm 0.00 in0.0 mm 0.31 in7.9 mm
05:40 PM 43.2°F6.2°C 39.6°F4.2°C 87% 6.0 mph SSE9.7 kmh SSE 13.0 mph20.9 kmh 29.31 in992.6 mb 0.01 in0.3 mm 0.09 in2.3 mm 0.31 in7.9 mm
05:45 PM 43.2°F6.2°C 39.6°F4.2°C 87% 6.0 mph SSE9.7 kmh SSE 12.0 mph19.3 kmh 29.31 in992.6 mb 0.01 in0.3 mm 0.00 in0.0 mm 0.31 in7.9 mm
05:50 PM 43.2°F6.2°C 39.6°F4.2°C 87% 5.0 mph SSE8.0 kmh SSE 13.0 mph20.9 kmh 29.32 in992.9 mb 0.01 in0.3 mm 0.00 in0.0 mm 0.31 in7.9 mm
05:55 PM 43.3°F6.3°C 39.4°F4.1°C 86% 7.0 mph SSE11.3 kmh SSE 12.0 mph19.3 kmh 29.32 in992.9 mb 0.01 in0.3 mm 0.00 in0.0 mm 0.31 in7.9 mm
06:00 PM 43.2°F6.2°C 39.2°F4.0°C 86% 8.0 mph SSE12.9 kmh SSE 17.0 mph27.4 kmh 29.32 in992.9 mb 0.01 in0.3 mm 0.00 in0.0 mm 0.31 in7.9 mm
06:05 PM 43.3°F6.3°C 39.4°F4.1°C 86% 8.0 mph SSE12.9 kmh SSE 16.0 mph25.7 kmh 29.32 in992.9 mb 0.01 in0.3 mm 0.00 in0.0 mm 0.31 in7.9 mm
06:10 PM 43.2°F6.2°C 39.2°F4.0°C 86% 5.0 mph SE8.0 kmh SE 16.0 mph25.7 kmh 29.33 in993.2 mb 0.01 in0.3 mm 0.00 in0.0 mm 0.31 in7.9 mm
06:15 PM 43.2°F6.2°C 39.2°F4.0°C 86% 6.0 mph SE9.7 kmh SE 13.0 mph20.9 kmh 29.33 in993.2 mb 0.01 in0.3 mm 0.00 in0.0 mm 0.31 in7.9 mm
06:20 PM 43.2°F6.2°C 39.2°F4.0°C 86% 8.0 mph SE12.9 kmh SE 14.0 mph22.5 kmh 29.33 in993.2 mb 0.01 in0.3 mm 0.00 in0.0 mm 0.31 in7.9 mm
06:25 PM 43.0°F6.1°C 38.8°F3.8°C 85% 8.0 mph SE12.9 kmh SE 16.0 mph25.7 kmh 29.33 in993.2 mb 0.02 in0.5 mm 0.09 in2.3 mm 0.31 in7.9 mm
06:30 PM 43.0°F6.1°C 38.5°F3.6°C 84% 9.0 mph SE14.5 kmh SE 16.0 mph25.7 kmh 29.34 in993.6 mb 0.02 in0.5 mm 0.00 in0.0 mm 0.31 in7.9 mm
06:35 PM 42.8°F6.0°C 38.3°F3.5°C 84% 9.0 mph SE14.5 kmh SE 18.0 mph29.0 kmh 29.34 in993.6 mb 0.02 in0.5 mm 0.00 in0.0 mm 0.31 in7.9 mm
06:40 PM 42.6°F5.9°C 38.1°F3.4°C 84% 9.0 mph SE14.5 kmh SE 18.0 mph29.0 kmh 29.34 in993.6 mb 0.01 in0.3 mm 0.00 in0.0 mm 0.31 in7.9 mm
06:45 PM 42.4°F5.8°C 37.9°F3.3°C 84% 7.0 mph SE11.3 kmh SE 13.0 mph20.9 kmh 29.35 in993.9 mb 0.01 in0.3 mm 0.00 in0.0 mm 0.31 in7.9 mm
06:50 PM 42.4°F5.8°C 37.9°F3.3°C 84% 9.0 mph SE14.5 kmh SE 16.0 mph25.7 kmh 29.36 in994.2 mb 0.01 in0.3 mm 0.00 in0.0 mm 0.31 in7.9 mm
06:55 PM 42.4°F5.8°C 38.3°F3.5°C 85% 10.0 mph SE16.1 kmh SE 18.0 mph29.0 kmh 29.35 in993.9 mb 0.01 in0.3 mm 0.00 in0.0 mm 0.31 in7.9 mm
07:00 PM 42.3°F5.7°C 38.1°F3.4°C 85% 9.0 mph SE14.5 kmh SE 21.0 mph33.8 kmh 29.35 in993.9 mb 0.01 in0.3 mm 0.00 in0.0 mm 0.31 in7.9 mm
07:05 PM 42.1°F5.6°C 37.9°F3.3°C 85% 8.0 mph SE12.9 kmh SE 22.0 mph35.4 kmh 29.36 in994.2 mb 0.02 in0.5 mm 0.09 in2.3 mm 0.31 in7.9 mm
07:10 PM 41.7°F5.4°C 37.8°F3.2°C 86% 8.0 mph SE12.9 kmh SE 15.0 mph24.1 kmh 29.36 in994.2 mb 0.02 in0.5 mm 0.00 in0.0 mm 0.31 in7.9 mm
07:15 PM 41.7°F5.4°C 37.6°F3.1°C 85% 7.0 mph SE11.3 kmh SE 14.0 mph22.5 kmh 29.36 in994.2 mb 0.02 in0.5 mm 0.00 in0.0 mm 0.31 in7.9 mm
07:20 PM 41.9°F5.5°C 37.8°F3.2°C 85% 9.0 mph SE14.5 kmh SE 14.0 mph22.5 kmh 29.37 in994.6 mb 0.02 in0.5 mm 0.00 in0.0 mm 0.31 in7.9 mm
07:25 PM 42.1°F5.6°C 37.6°F3.1°C 84% 7.0 mph SE11.3 kmh SE 12.0 mph19.3 kmh 29.37 in994.6 mb 0.01 in0.3 mm 0.00 in0.0 mm 0.31 in7.9 mm
07:30 PM 42.1°F5.6°C 37.6°F3.1°C 84% 9.0 mph SE14.5 kmh SE 17.0 mph27.4 kmh 29.37 in994.6 mb 0.01 in0.3 mm 0.00 in0.0 mm 0.31 in7.9 mm
07:35 PM 42.1°F5.6°C 37.6°F3.1°C 84% 8.0 mph SE12.9 kmh SE 15.0 mph24.1 kmh 29.37 in994.6 mb 0.01 in0.3 mm 0.00 in0.0 mm 0.31 in7.9 mm
07:40 PM 42.1°F5.6°C 37.6°F3.1°C 84% 6.0 mph SE9.7 kmh SE 12.0 mph19.3 kmh 29.38 in994.9 mb 0.01 in0.3 mm 0.00 in0.0 mm 0.31 in7.9 mm
07:45 PM 42.1°F5.6°C 37.9°F3.3°C 85% 5.0 mph SE8.0 kmh SE 12.0 mph19.3 kmh 29.38 in994.9 mb 0.01 in0.3 mm 0.00 in0.0 mm 0.31 in7.9 mm
07:50 PM 42.1°F5.6°C 37.9°F3.3°C 85% 6.0 mph SE9.7 kmh SE 13.0 mph20.9 kmh 29.38 in994.9 mb 0.02 in0.5 mm 0.09 in2.3 mm 0.31 in7.9 mm
07:55 PM 41.7°F5.4°C 37.8°F3.2°C 86% 9.0 mph SE14.5 kmh SE 20.0 mph32.2 kmh 29.38 in994.9 mb 0.02 in0.5 mm 0.00 in0.0 mm 0.31 in7.9 mm
08:00 PM 41.5°F5.3°C 37.6°F3.1°C 86% 10.0 mph SSE16.1 kmh SSE 20.0 mph32.2 kmh 29.39 in995.3 mb 0.02 in0.5 mm 0.01 in0.3 mm 0.31 in7.9 mm
08:05 PM 41.4°F5.2°C 37.4°F3.0°C 86% 7.0 mph SSE11.3 kmh SSE 13.0 mph20.9 kmh 29.39 in995.3 mb 0.02 in0.5 mm 0.00 in0.0 mm 0.31 in7.9 mm
08:10 PM 41.4°F5.2°C 37.4°F3.0°C 86% 5.0 mph SE8.0 kmh SE 10.0 mph16.1 kmh 29.39 in995.3 mb 0.02 in0.5 mm 0.09 in2.3 mm 0.31 in7.9 mm
08:15 PM 41.4°F5.2°C 37.8°F3.2°C 87% 4.0 mph SE6.4 kmh SE 12.0 mph19.3 kmh 29.39 in995.3 mb 0.02 in0.5 mm 0.00 in0.0 mm 0.31 in7.9 mm
08:20 PM 41.5°F5.3°C 37.9°F3.3°C 87% 5.0 mph SE8.0 kmh SE 11.0 mph17.7 kmh 29.39 in995.3 mb 0.02 in0.5 mm 0.00 in0.0 mm 0.31 in7.9 mm
08:25 PM 41.5°F5.3°C 38.3°F3.5°C 88% 2.0 mph SE3.2 kmh SE 9.0 mph14.5 kmh 29.39 in995.3 mb 0.02 in0.5 mm 0.00 in0.0 mm 0.31 in7.9 mm
08:30 PM 41.5°F5.3°C 38.3°F3.5°C 88% 1.0 mph SE1.6 kmh SE 7.0 mph11.3 kmh 29.40 in995.6 mb 0.03 in0.8 mm 0.09 in2.3 mm 0.31 in7.9 mm
08:35 PM 41.5°F5.3°C 38.3°F3.5°C 88% 2.0 mph SE3.2 kmh SE 8.0 mph12.9 kmh 29.40 in995.6 mb 0.04 in1.0 mm 0.09 in2.3 mm 0.31 in7.9 mm
08:40 PM 41.5°F5.3°C 38.3°F3.5°C 88% 2.0 mph SE3.2 kmh SE 9.0 mph14.5 kmh 29.40 in995.6 mb 0.04 in1.0 mm 0.00 in0.0 mm 0.31 in7.9 mm
08:45 PM 41.5°F5.3°C 38.5°F3.6°C 89% 2.0 mph SE3.2 kmh SE 8.0 mph12.9 kmh 29.40 in995.6 mb 0.04 in1.0 mm 0.00 in0.0 mm 0.31 in7.9 mm
08:50 PM 41.5°F5.3°C 38.3°F3.5°C 88% 1.0 mph SE1.6 kmh SE 5.0 mph8.0 kmh 29.40 in995.6 mb 0.03 in0.8 mm 0.00 in0.0 mm 0.31 in7.9 mm
08:55 PM 41.5°F5.3°C 38.3°F3.5°C 88% Calm Calm 5.0 mph8.0 kmh 29.40 in995.6 mb 0.03 in0.8 mm 0.00 in0.0 mm 0.31 in7.9 mm
09:00 PM 41.5°F5.3°C 38.3°F3.5°C 88% Calm Calm 5.0 mph8.0 kmh 29.40 in995.6 mb 0.02 in0.5 mm 0.00 in0.0 mm 0.31 in7.9 mm
09:05 PM 41.5°F5.3°C 38.3°F3.5°C 88% Calm Calm 5.0 mph8.0 kmh 29.40 in995.6 mb 0.02 in0.5 mm 0.00 in0.0 mm 0.31 in7.9 mm
09:10 PM 41.5°F5.3°C 38.3°F3.5°C 88% Calm Calm 5.0 mph8.0 kmh 29.40 in995.6 mb 0.02 in0.5 mm 0.00 in0.0 mm 0.31 in7.9 mm
09:15 PM 41.5°F5.3°C 38.3°F3.5°C 88% 2.0 mph SE3.2 kmh SE 9.0 mph14.5 kmh 29.40 in995.6 mb 0.02 in0.5 mm 0.00 in0.0 mm 0.31 in7.9 mm
09:20 PM 41.7°F5.4°C 38.5°F3.6°C 88% 2.0 mph SE3.2 kmh SE 9.0 mph14.5 kmh 29.41 in995.9 mb 0.02 in0.5 mm 0.00 in0.0 mm 0.31 in7.9 mm
09:25 PM 41.7°F5.4°C 38.1°F3.4°C 87% 4.0 mph SE6.4 kmh SE 13.0 mph20.9 kmh 29.40 in995.6 mb 0.02 in0.5 mm 0.00 in0.0 mm 0.31 in7.9 mm
09:30 PM 41.9°F5.5°C 38.3°F3.5°C 87% 3.0 mph SE4.8 kmh SE 11.0 mph17.7 kmh 29.41 in995.9 mb 0.01 in0.3 mm 0.00 in0.0 mm 0.31 in7.9 mm
09:35 PM 41.9°F5.5°C 38.3°F3.5°C 87% 6.0 mph SE9.7 kmh SE 14.0 mph22.5 kmh 29.41 in995.9 mb 0.00 in0.0 mm 0.00 in0.0 mm 0.31 in7.9 mm
09:40 PM 42.1°F5.6°C 38.1°F3.4°C 86% 3.0 mph SE4.8 kmh SE 9.0 mph14.5 kmh 29.41 in995.9 mb 0.00 in0.0 mm 0.00 in0.0 mm 0.31 in7.9 mm
09:45 PM 42.1°F5.6°C 38.5°F3.6°C 87% 5.0 mph SE8.0 kmh SE 11.0 mph17.7 kmh 29.41 in995.9 mb 0.00 in0.0 mm 0.00 in0.0 mm 0.31 in7.9 mm
09:50 PM 42.1°F5.6°C 38.1°F3.4°C 86% 4.0 mph SE6.4 kmh SE 10.0 mph16.1 kmh 29.41 in995.9 mb 0.00 in0.0 mm 0.00 in0.0 mm 0.31 in7.9 mm
09:55 PM 42.1°F5.6°C 38.1°F3.4°C 86% 3.0 mph SE4.8 kmh SE 8.0 mph12.9 kmh 29.41 in995.9 mb 0.00 in0.0 mm 0.00 in0.0 mm 0.31 in7.9 mm
10:00 PM 42.3°F5.7°C 38.3°F3.5°C 86% 2.0 mph SE3.2 kmh SE 9.0 mph14.5 kmh 29.41 in995.9 mb 0.00 in0.0 mm 0.00 in0.0 mm 0.31 in7.9 mm
10:05 PM 42.4°F5.8°C 38.3°F3.5°C 85% 4.0 mph SE6.4 kmh SE 10.0 mph16.1 kmh 29.42 in996.3 mb 0.00 in0.0 mm 0.00 in0.0 mm 0.31 in7.9 mm
10:10 PM 42.6°F5.9°C 38.1°F3.4°C 84% 7.0 mph SSE11.3 kmh SSE 12.0 mph19.3 kmh 29.42 in996.3 mb 0.00 in0.0 mm 0.00 in0.0 mm 0.31 in7.9 mm
10:15 PM 42.8°F6.0°C 38.3°F3.5°C 84% 6.0 mph SE9.7 kmh SE 16.0 mph25.7 kmh 29.42 in996.3 mb 0.00 in0.0 mm 0.00 in0.0 mm 0.31 in7.9 mm
10:20 PM 42.8°F6.0°C 38.3°F3.5°C 84% 6.0 mph SE9.7 kmh SE 13.0 mph20.9 kmh 29.42 in996.3 mb 0.00 in0.0 mm 0.00 in0.0 mm 0.31 in7.9 mm
10:25 PM 42.6°F5.9°C 38.1°F3.4°C 84% 6.0 mph SE9.7 kmh SE 14.0 mph22.5 kmh 29.42 in996.3 mb 0.00 in0.0 mm 0.00 in0.0 mm 0.31 in7.9 mm
10:30 PM 42.6°F5.9°C 38.1°F3.4°C 84% 4.0 mph SE6.4 kmh SE 10.0 mph16.1 kmh 29.42 in996.3 mb 0.00 in0.0 mm 0.00 in0.0 mm 0.31 in7.9 mm
10:35 PM 42.4°F5.8°C 38.3°F3.5°C 85% 2.0 mph SE3.2 kmh SE 10.0 mph16.1 kmh 29.42 in996.3 mb 0.00 in0.0 mm 0.00 in0.0 mm 0.31 in7.9 mm
10:40 PM 42.3°F5.7°C 38.1°F3.4°C 85% 1.0 mph SE1.6 kmh SE 8.0 mph12.9 kmh 29.42 in996.3 mb 0.00 in0.0 mm 0.00 in0.0 mm 0.31 in7.9 mm
10:45 PM 42.3°F5.7°C 38.3°F3.5°C 86% 2.0 mph SE3.2 kmh SE 9.0 mph14.5 kmh 29.42 in996.3 mb 0.00 in0.0 mm 0.00 in0.0 mm 0.31 in7.9 mm
10:50 PM 42.3°F5.7°C 38.3°F3.5°C 86% 2.0 mph SE3.2 kmh SE 10.0 mph16.1 kmh 29.43 in996.6 mb 0.00 in0.0 mm 0.00 in0.0 mm 0.31 in7.9 mm
10:55 PM 42.3°F5.7°C 38.3°F3.5°C 86% 2.0 mph SE3.2 kmh SE 9.0 mph14.5 kmh 29.43 in996.6 mb 0.00 in0.0 mm 0.00 in0.0 mm 0.31 in7.9 mm
11:00 PM 42.1°F5.6°C 38.1°F3.4°C 86% Calm Calm 5.0 mph8.0 kmh 29.43 in996.6 mb 0.00 in0.0 mm 0.00 in0.0 mm 0.03 in0.8 mm
11:05 PM 42.1°F5.6°C 38.1°F3.4°C 86% Calm Calm -- 29.43 in996.6 mb 0.00 in0.0 mm 0.00 in0.0 mm 0.03 in0.8 mm
11:10 PM 41.9°F5.5°C 38.3°F3.5°C 87% Calm Calm -- 29.43 in996.6 mb 0.00 in0.0 mm 0.00 in0.0 mm 0.03 in0.8 mm
11:15 PM 41.7°F5.4°C 38.1°F3.4°C 87% Calm Calm -- 29.43 in996.6 mb 0.00 in0.0 mm 0.00 in0.0 mm 0.03 in0.8 mm
11:20 PM 41.7°F5.4°C 38.5°F3.6°C 88% Calm Calm -- 29.43 in996.6 mb 0.00 in0.0 mm 0.00 in0.0 mm 0.03 in0.8 mm
11:25 PM 41.7°F5.4°C 38.5°F3.6°C 88% Calm Calm -- 29.43 in996.6 mb 0.00 in0.0 mm 0.00 in0.0 mm 0.03 in0.8 mm
11:30 PM 41.7°F5.4°C 38.5°F3.6°C 88% Calm Calm -- 29.43 in996.6 mb 0.00 in0.0 mm 0.00 in0.0 mm 0.03 in0.8 mm
11:35 PM 41.7°F5.4°C 38.5°F3.6°C 88% Calm Calm -- 29.44 in997.0 mb 0.00 in0.0 mm 0.00 in0.0 mm 0.03 in0.8 mm
11:40 PM 41.7°F5.4°C 38.5°F3.6°C 88% Calm Calm 4.0 mph6.4 kmh 29.44 in997.0 mb 0.01 in0.3 mm 0.09 in2.3 mm 0.03 in0.8 mm
11:45 PM 42.1°F5.6°C 38.8°F3.8°C 88% Calm Calm 4.0 mph6.4 kmh 29.44 in997.0 mb 0.01 in0.3 mm 0.00 in0.0 mm 0.03 in0.8 mm
11:50 PM 42.3°F5.7°C 39.0°F3.9°C 88% 2.0 mph SE3.2 kmh SE 7.0 mph11.3 kmh 29.44 in997.0 mb 0.02 in0.5 mm 0.09 in2.3 mm 0.03 in0.8 mm
11:55 PM 42.3°F5.7°C 39.0°F3.9°C 88% 1.0 mph SE1.6 kmh SE 5.0 mph8.0 kmh 29.44 in997.0 mb 0.02 in0.5 mm 0.00 in0.0 mm 0.03 in0.8 mm